Regional Weather Roundup
Issued by NWS

Home | Current Version | Previous Version | Graphics & Text | Print | Product List | Glossary Off
Versions: 1 2 3 4 5 6 7 8 9 10 11 12 13 14 15 16 17 18 19 20 21 22 23 24 25 26 27 28 29 30 31 32 33 34 35 36 37 38 39 40 41 42 43 44 45 46 47 48 49 50

000
ASUS43 KFSD 171310
RWRSD

WEATHER ROUNDUP FOR SOUTH DAKOTA
NATIONAL WEATHER SERVICE SIOUX FALLS SD
800 AM CDT WED SEP 17 2014

NOTE: "FAIR" INDICATES FEW OR NO CLOUDS BELOW 12,000 FEET WITH NO
SIGNIFICANT WEATHER AND/OR OBSTRUCTIONS TO VISIBILITY.


SDZ001>005-009-010-012>017-171400-
NORTHWEST AND NORTH CENTRAL SOUTH DAKOTA

CITY           SKY/WX    TMP DP  RH WIND       PRES   REMARKS
BUFFALO          N/A     48  43  82 W3        29.90R
FAITH            N/A     47  45  93 NE7       29.94R
MOBRIDGE       CLEAR     47  47 100 CALM      29.92R
$$

SDZ012>016-024>037-041>051-057-063-072>074-171400-
SOUTHWEST AND SOUTH CENTRAL SOUTH DAKOTA

CITY           SKY/WX    TMP DP  RH WIND       PRES   REMARKS
RAPID CTY ARPT CLEAR     51  39  63 NW10      29.96R
PIERRE         CLEAR     47  46  97 NE5       29.91R
CUSTER         CLEAR     49  30  48 NW6       30.08S
ELLSWORTH AFB  CLEAR     58  40  51 N7        29.96R
PHILIP         CLEAR     46  43  89 NW6       29.92R
PINE RIDGE     PTCLDY    49  47  93 NW5       29.95S
WINNER         FAIR      52  49  89 SE3       29.91S
$$

SDZ004>011-016>023-039-040-171400-
NORTHEAST SOUTH DAKOTA

CITY           SKY/WX    TMP DP  RH WIND       PRES   REMARKS
ABERDEEN       FOG       43  43 100 CALM      29.93S VSB 1
WATERTOWN      CLEAR     48  47  96 CALM      29.93R
SISSETON         N/A     48  48 100 CALM      29.91R
$$

SDZ017-020-022-023-036>040-048>070-171400-
SOUTHEAST SOUTH DAKOTA

CITY           SKY/WX    TMP DP  RH WIND       PRES   REMARKS
SIOUX FALLS    PTCLDY    51  49  92 CALM      29.93R
HURON          PTCLDY    48  46  93 CALM      29.92R
CHAMBERLAIN    FOG       47  47 100 CALM      29.91R VSB<1/4
MITCHELL       CLEAR     48  47  96 S3        29.92R
YANKTON        CLEAR     48  48 100 CALM      29.92R
$$

ABBREVIATIONS USED IN REMARKS
   TC - TEMPERATURE IN CELSIUS
  WCI - WIND CHILL INDEX
   HX - HEAT INDEX
  VSB - VISIBILITY



USA.gov is the U.S. government's official web portal to all federal, state and local government web resources and services.